Year,Month,Day,Hour,Minute,Value (Times are PST for temperature in C)
2021,08,13,00,00,23.70
2021,08,13,00,01,23.70
2021,08,13,00,02,23.70
2021,08,13,00,03,23.70
2021,08,13,00,04,23.70
2021,08,13,00,05,23.70
2021,08,13,00,06,23.70
2021,08,13,00,07,23.70
2021,08,13,00,08,23.70
2021,08,13,00,09,23.70
2021,08,13,00,10,23.70
2021,08,13,00,11,23.70
2021,08,13,00,12,23.70
2021,08,13,00,13,23.70
2021,08,13,00,14,23.70
2021,08,13,00,15,23.70
2021,08,13,00,16,23.70
2021,08,13,00,17,23.70
2021,08,13,00,18,23.70
2021,08,13,00,19,23.70
2021,08,13,00,20,23.70
2021,08,13,00,21,23.70
2021,08,13,00,22,23.70
2021,08,13,00,23,23.70
2021,08,13,00,24,23.70
2021,08,13,00,25,23.70
2021,08,13,00,26,23.60
2021,08,13,00,27,23.60
2021,08,13,00,28,23.50
2021,08,13,00,29,23.40
2021,08,13,00,30,23.40
2021,08,13,00,31,23.40
2021,08,13,00,32,23.40
2021,08,13,00,33,23.40
2021,08,13,00,34,23.50
2021,08,13,00,35,23.60
2021,08,13,00,36,23.60
2021,08,13,00,37,23.60
2021,08,13,00,38,23.70
2021,08,13,00,39,23.70
2021,08,13,00,40,23.70
2021,08,13,00,41,23.70
2021,08,13,00,42,23.70
2021,08,13,00,43,23.70
2021,08,13,00,44,23.70
2021,08,13,00,45,23.70
2021,08,13,00,46,23.60
2021,08,13,00,47,23.60
2021,08,13,00,48,23.60
2021,08,13,00,49,23.60
2021,08,13,00,50,23.60
2021,08,13,00,51,23.50
2021,08,13,00,52,23.40
2021,08,13,00,53,23.40
2021,08,13,00,54,23.30
2021,08,13,00,55,23.30
2021,08,13,00,56,23.30
2021,08,13,00,57,23.20
2021,08,13,00,58,23.20
2021,08,13,00,59,23.10
2021,08,13,01,00,23.10
2021,08,13,01,01,23.00
2021,08,13,01,02,22.90
2021,08,13,01,03,22.90
2021,08,13,01,04,22.80
2021,08,13,01,05,22.70
2021,08,13,01,06,22.70
2021,08,13,01,07,22.60
2021,08,13,01,08,22.50
2021,08,13,01,09,22.50
2021,08,13,01,10,22.40
2021,08,13,01,11,22.40
2021,08,13,01,12,22.30
2021,08,13,01,13,22.30
2021,08,13,01,14,22.30
2021,08,13,01,15,22.20
2021,08,13,01,16,22.20
2021,08,13,01,17,22.20
2021,08,13,01,18,22.20
2021,08,13,01,19,22.20
2021,08,13,01,20,22.20
2021,08,13,01,21,22.20
2021,08,13,01,22,22.20
2021,08,13,01,23,22.20
2021,08,13,01,24,22.10
2021,08,13,01,25,22.10
2021,08,13,01,26,22.10
2021,08,13,01,27,22.10
2021,08,13,01,28,22.00
2021,08,13,01,29,22.00
2021,08,13,01,30,22.00
2021,08,13,01,31,21.90
2021,08,13,01,32,21.90
2021,08,13,01,33,21.80
2021,08,13,01,34,21.80
2021,08,13,01,35,21.80
2021,08,13,01,36,21.70
2021,08,13,01,37,21.70
2021,08,13,01,38,21.70
2021,08,13,01,39,21.60
2021,08,13,01,40,21.60
2021,08,13,01,41,21.60
2021,08,13,01,42,21.60
2021,08,13,01,43,21.60
2021,08,13,01,44,21.60
2021,08,13,01,45,21.60
2021,08,13,01,46,21.60
2021,08,13,01,47,21.50
2021,08,13,01,48,21.40
2021,08,13,01,49,21.40
2021,08,13,01,50,21.40
2021,08,13,01,51,21.40
2021,08,13,01,52,21.40
2021,08,13,01,53,21.30
2021,08,13,01,54,21.30
2021,08,13,01,55,21.30
2021,08,13,01,56,21.30
2021,08,13,01,57,21.30
2021,08,13,01,58,21.30
2021,08,13,01,59,21.30
2021,08,13,02,00,21.30
2021,08,13,02,01,21.30
2021,08,13,02,02,21.30
2021,08,13,02,03,21.30
2021,08,13,02,04,21.20
2021,08,13,02,05,21.20
2021,08,13,02,06,21.20
2021,08,13,02,07,21.20
2021,08,13,02,08,21.10
2021,08,13,02,09,21.10
2021,08,13,02,10,21.10
2021,08,13,02,11,21.10
2021,08,13,02,12,21.10
2021,08,13,02,13,21.10
2021,08,13,02,14,21.10
2021,08,13,02,15,21.10
2021,08,13,02,16,21.10
2021,08,13,02,17,21.10
2021,08,13,02,18,21.10
2021,08,13,02,19,21.10
2021,08,13,02,20,21.10
2021,08,13,02,21,21.10
2021,08,13,02,22,21.10
2021,08,13,02,23,21.10
2021,08,13,02,24,21.10
2021,08,13,02,25,21.20
2021,08,13,02,26,21.20
2021,08,13,02,27,21.20
2021,08,13,02,28,21.20
2021,08,13,02,29,21.30
2021,08,13,02,30,21.30
2021,08,13,02,31,21.40
2021,08,13,02,32,21.40
2021,08,13,02,33,21.60
2021,08,13,02,34,21.60
2021,08,13,02,35,21.70
2021,08,13,02,36,21.70
2021,08,13,02,37,21.80
2021,08,13,02,38,21.80
2021,08,13,02,39,21.80
2021,08,13,02,40,21.80
2021,08,13,02,41,21.80
2021,08,13,02,42,21.80
2021,08,13,02,43,21.80
2021,08,13,02,44,21.80
2021,08,13,02,45,21.80
2021,08,13,02,46,21.70
2021,08,13,02,47,21.70
2021,08,13,02,48,21.60
2021,08,13,02,49,21.60
2021,08,13,02,50,21.60
2021,08,13,02,51,21.60
2021,08,13,02,52,21.60
2021,08,13,02,53,21.60
2021,08,13,02,54,21.60
2021,08,13,02,55,21.70
2021,08,13,02,56,21.90
2021,08,13,02,57,22.00
2021,08,13,02,58,22.10
2021,08,13,02,59,22.20
2021,08,13,03,00,22.30
2021,08,13,03,01,22.30
2021,08,13,03,02,22.30
2021,08,13,03,03,22.30
2021,08,13,03,04,22.20
2021,08,13,03,05,22.20
2021,08,13,03,06,22.20
2021,08,13,03,07,22.20
2021,08,13,03,08,22.20
2021,08,13,03,09,22.10
2021,08,13,03,10,22.10
2021,08,13,03,11,22.10
2021,08,13,03,12,22.00
2021,08,13,03,13,22.00
2021,08,13,03,14,21.90
2021,08,13,03,15,21.90
2021,08,13,03,16,21.80
2021,08,13,03,17,21.70
2021,08,13,03,18,21.60
2021,08,13,03,19,21.60
2021,08,13,03,20,21.60
2021,08,13,03,21,21.60
2021,08,13,03,22,21.60
2021,08,13,03,23,21.60
2021,08,13,03,24,21.50
2021,08,13,03,25,21.40
2021,08,13,03,26,21.40
2021,08,13,03,27,21.30
2021,08,13,03,28,21.30
2021,08,13,03,29,21.30
2021,08,13,03,30,21.30
2021,08,13,03,31,21.50
2021,08,13,03,32,21.70
2021,08,13,03,33,21.70
2021,08,13,03,34,21.90
2021,08,13,03,35,21.90
2021,08,13,03,36,21.90
2021,08,13,03,37,21.90
2021,08,13,03,38,21.80
2021,08,13,03,39,21.80
2021,08,13,03,40,21.70
2021,08,13,03,41,21.60
2021,08,13,03,42,21.60
2021,08,13,03,43,21.50
2021,08,13,03,44,21.30
2021,08,13,03,45,21.30
2021,08,13,03,46,21.10
2021,08,13,03,47,20.90
2021,08,13,03,48,20.80
2021,08,13,03,49,20.60
2021,08,13,03,50,20.50
2021,08,13,03,51,20.40
2021,08,13,03,52,20.30
2021,08,13,03,53,20.20
2021,08,13,03,54,20.10
2021,08,13,03,55,20.00
2021,08,13,03,56,19.90
2021,08,13,03,57,19.80
2021,08,13,03,58,19.70
2021,08,13,03,59,19.60
2021,08,13,04,00,19.50
2021,08,13,04,01,19.40
2021,08,13,04,02,19.40
2021,08,13,04,03,19.30
2021,08,13,04,04,19.30
2021,08,13,04,05,19.20
2021,08,13,04,06,19.10
2021,08,13,04,07,19.10
2021,08,13,04,08,19.10
2021,08,13,04,09,19.10
2021,08,13,04,10,19.00
2021,08,13,04,11,18.90
2021,08,13,04,12,18.90
2021,08,13,04,13,18.90
2021,08,13,04,14,18.90
2021,08,13,04,15,18.90
2021,08,13,04,16,18.90
2021,08,13,04,17,18.90
2021,08,13,04,18,18.90
2021,08,13,04,19,18.90
2021,08,13,04,20,18.90
2021,08,13,04,21,18.90
2021,08,13,04,22,18.80
2021,08,13,04,23,18.80
2021,08,13,04,24,18.80
2021,08,13,04,25,18.80
2021,08,13,04,26,18.80
2021,08,13,04,27,18.70
2021,08,13,04,28,18.70
2021,08,13,04,29,18.70
2021,08,13,04,30,18.70
2021,08,13,04,31,18.70
2021,08,13,04,32,18.70
2021,08,13,04,33,18.70
2021,08,13,04,34,18.70
2021,08,13,04,35,18.70
2021,08,13,04,36,18.70
2021,08,13,04,37,18.70
2021,08,13,04,38,18.70
2021,08,13,04,39,18.70
2021,08,13,04,40,18.70
2021,08,13,04,41,18.70
2021,08,13,04,42,18.70
2021,08,13,04,43,18.70
2021,08,13,04,44,18.70
2021,08,13,04,45,18.70
2021,08,13,04,46,18.70
2021,08,13,04,47,18.70
2021,08,13,04,48,18.70
2021,08,13,04,49,18.80
2021,08,13,04,50,18.80
2021,08,13,04,51,18.80
2021,08,13,04,52,18.80
2021,08,13,04,53,18.80
2021,08,13,04,54,18.90
2021,08,13,04,55,18.90
2021,08,13,04,56,18.90
2021,08,13,04,57,18.90
2021,08,13,04,58,18.90
2021,08,13,04,59,18.90
2021,08,13,05,00,18.90
2021,08,13,05,01,18.90
2021,08,13,05,02,18.90
2021,08,13,05,03,18.90
2021,08,13,05,04,18.90
2021,08,13,05,05,18.90
2021,08,13,05,06,18.90
2021,08,13,05,07,18.90
2021,08,13,05,08,18.90
2021,08,13,05,09,18.90
2021,08,13,05,10,18.90
2021,08,13,05,11,19.00
2021,08,13,05,12,19.10
2021,08,13,05,13,19.10
2021,08,13,05,14,19.10
2021,08,13,05,15,19.20
2021,08,13,05,16,19.30
2021,08,13,05,17,19.30
2021,08,13,05,18,19.40
2021,08,13,05,19,19.40
2021,08,13,05,20,19.40
2021,08,13,05,21,19.50
2021,08,13,05,22,19.50
2021,08,13,05,23,19.60
2021,08,13,05,24,19.60
2021,08,13,05,25,19.60
2021,08,13,05,26,19.70
2021,08,13,05,27,19.70
2021,08,13,05,28,19.70
2021,08,13,05,29,19.60
2021,08,13,05,30,19.60
2021,08,13,05,31,19.50
2021,08,13,05,32,19.50
2021,08,13,05,33,19.40
2021,08,13,05,34,19.30
2021,08,13,05,35,19.30
2021,08,13,05,36,19.20
2021,08,13,05,37,19.20
2021,08,13,05,38,19.10
2021,08,13,05,39,19.10
2021,08,13,05,40,19.10
2021,08,13,05,41,19.10
2021,08,13,05,42,19.10
2021,08,13,05,43,18.90
2021,08,13,05,44,18.90
2021,08,13,05,45,18.90
2021,08,13,05,46,18.90
2021,08,13,05,47,18.90
2021,08,13,05,48,18.90
2021,08,13,05,49,18.90
2021,08,13,05,50,18.90
2021,08,13,05,51,18.90
2021,08,13,05,52,18.90
2021,08,13,05,53,18.90
2021,08,13,05,54,18.90
2021,08,13,05,55,18.90
2021,08,13,05,56,18.90
2021,08,13,05,57,18.90
2021,08,13,05,58,18.80
2021,08,13,05,59,18.80
2021,08,13,06,00,18.80
2021,08,13,06,01,18.80
2021,08,13,06,02,18.80
2021,08,13,06,03,18.80
2021,08,13,06,04,18.80
2021,08,13,06,05,18.80
2021,08,13,06,06,18.80
2021,08,13,06,07,18.80
2021,08,13,06,08,18.80
2021,08,13,06,09,18.70
2021,08,13,06,10,18.70
2021,08,13,06,11,18.70
2021,08,13,06,12,18.70
2021,08,13,06,13,18.70
2021,08,13,06,14,18.70
2021,08,13,06,15,18.70
2021,08,13,06,16,18.60
2021,08,13,06,17,18.60
2021,08,13,06,18,18.60
2021,08,13,06,19,18.60
2021,08,13,06,20,18.60
2021,08,13,06,21,18.60
2021,08,13,06,22,18.60
2021,08,13,06,23,18.60
2021,08,13,06,24,18.60
2021,08,13,06,25,18.50
2021,08,13,06,26,18.50
2021,08,13,06,27,18.50
2021,08,13,06,28,18.50
2021,08,13,06,29,18.50
2021,08,13,06,30,18.40
2021,08,13,06,31,18.40
2021,08,13,06,32,18.40
2021,08,13,06,33,18.40
2021,08,13,06,34,18.40
2021,08,13,06,35,18.40
2021,08,13,06,36,18.40
2021,08,13,06,37,18.40
2021,08,13,06,38,18.40
2021,08,13,06,39,18.40
2021,08,13,06,40,18.40
2021,08,13,06,41,18.50
2021,08,13,06,42,18.50
2021,08,13,06,43,18.50
2021,08,13,06,44,18.50
2021,08,13,06,45,18.50
2021,08,13,06,46,18.50
2021,08,13,06,47,18.60
2021,08,13,06,48,18.60
2021,08,13,06,49,18.60
2021,08,13,06,50,18.60
2021,08,13,06,51,18.60
2021,08,13,06,52,18.60
2021,08,13,06,53,18.60
2021,08,13,06,54,18.60
2021,08,13,06,55,18.60
2021,08,13,06,56,18.60
2021,08,13,06,57,18.60
2021,08,13,06,58,18.60
2021,08,13,06,59,18.70
2021,08,13,07,00,18.70
2021,08,13,07,01,18.70
2021,08,13,07,02,18.80
2021,08,13,07,03,18.80
2021,08,13,07,04,18.80
2021,08,13,07,05,18.80
2021,08,13,07,06,18.90
2021,08,13,07,07,18.90
2021,08,13,07,08,18.90
2021,08,13,07,09,18.90
2021,08,13,07,10,18.90
2021,08,13,07,11,18.90
2021,08,13,07,12,18.90
2021,08,13,07,13,18.90
2021,08,13,07,14,18.90
2021,08,13,07,15,19.00
2021,08,13,07,16,19.10
2021,08,13,07,17,19.10
2021,08,13,07,18,19.10
2021,08,13,07,19,19.10
2021,08,13,07,20,19.10
2021,08,13,07,21,19.10
2021,08,13,07,22,19.20
2021,08,13,07,23,19.20
2021,08,13,07,24,19.20
2021,08,13,07,25,19.30
2021,08,13,07,26,19.30
2021,08,13,07,27,19.30
2021,08,13,07,28,19.30
2021,08,13,07,29,19.40
2021,08,13,07,30,19.40
2021,08,13,07,31,19.40
2021,08,13,07,32,19.40
2021,08,13,07,33,19.40
2021,08,13,07,34,19.40
2021,08,13,07,35,19.50
2021,08,13,07,36,19.40
2021,08,13,07,37,19.40
2021,08,13,07,38,19.40
2021,08,13,07,39,19.50
2021,08,13,07,40,19.50
2021,08,13,07,41,19.50
2021,08,13,07,42,19.50
2021,08,13,07,43,19.50
2021,08,13,07,44,19.60
2021,08,13,07,45,19.60
2021,08,13,07,46,19.60
2021,08,13,07,47,19.60
2021,08,13,07,48,19.60
2021,08,13,07,49,19.70
2021,08,13,07,50,19.70
2021,08,13,07,51,19.80
2021,08,13,07,52,19.90
2021,08,13,07,53,19.90
2021,08,13,07,54,19.90
2021,08,13,07,55,20.00
2021,08,13,07,56,20.10
2021,08,13,07,57,20.20
2021,08,13,07,58,20.20
2021,08,13,07,59,20.20
2021,08,13,08,00,20.20
2021,08,13,08,01,20.20
2021,08,13,08,02,20.20
2021,08,13,08,03,20.20
2021,08,13,08,04,20.20
2021,08,13,08,05,20.20
2021,08,13,08,06,20.20
2021,08,13,08,07,20.20
2021,08,13,08,08,20.20
2021,08,13,08,09,20.20
2021,08,13,08,10,20.20
2021,08,13,08,11,20.30
2021,08,13,08,12,20.30
2021,08,13,08,13,20.30
2021,08,13,08,14,20.30
2021,08,13,08,15,20.40
2021,08,13,08,16,20.40
2021,08,13,08,17,20.40
2021,08,13,08,18,20.40
2021,08,13,08,19,20.50
2021,08,13,08,20,20.50
2021,08,13,08,21,20.50
2021,08,13,08,22,20.60
2021,08,13,08,23,20.60
2021,08,13,08,24,20.70
2021,08,13,08,25,20.70
2021,08,13,08,26,20.80
2021,08,13,08,27,20.80
2021,08,13,08,28,20.90
2021,08,13,08,29,20.90
2021,08,13,08,30,21.00
2021,08,13,08,31,21.00
2021,08,13,08,32,21.10
2021,08,13,08,33,21.20
2021,08,13,08,34,21.20
2021,08,13,08,35,21.30
2021,08,13,08,36,21.30
2021,08,13,08,37,21.40
2021,08,13,08,38,21.40
2021,08,13,08,39,21.50
2021,08,13,08,40,21.60
2021,08,13,08,41,21.60
2021,08,13,08,42,21.60
2021,08,13,08,43,21.60
2021,08,13,08,44,21.70
2021,08,13,08,45,21.70
2021,08,13,08,46,21.80
2021,08,13,08,47,21.90
2021,08,13,08,48,22.00
2021,08,13,08,49,22.10
2021,08,13,08,50,22.10
2021,08,13,08,51,22.20
2021,08,13,08,52,22.30
2021,08,13,08,53,22.40
2021,08,13,08,54,22.50
2021,08,13,08,55,22.60
2021,08,13,08,56,22.60
2021,08,13,08,57,22.80
2021,08,13,08,58,22.90
2021,08,13,08,59,22.90
2021,08,13,09,00,23.00
2021,08,13,09,01,23.10
2021,08,13,09,02,23.30
2021,08,13,09,03,23.40
2021,08,13,09,04,23.60
2021,08,13,09,05,23.70
2021,08,13,09,06,23.80
2021,08,13,09,07,24.00
2021,08,13,09,08,24.20
2021,08,13,09,09,24.30
2021,08,13,09,10,24.40
2021,08,13,09,11,24.50
2021,08,13,09,12,24.50
2021,08,13,09,13,24.50
2021,08,13,09,14,24.60
2021,08,13,09,15,24.60
2021,08,13,09,16,24.50
2021,08,13,09,17,24.50
2021,08,13,09,18,24.50
2021,08,13,09,19,24.50
2021,08,13,09,20,24.50
2021,08,13,09,21,24.50
2021,08,13,09,22,24.50
2021,08,13,09,23,24.50
2021,08,13,09,24,24.50
2021,08,13,09,25,24.40
2021,08,13,09,26,24.30
2021,08,13,09,27,24.30
2021,08,13,09,28,24.30
2021,08,13,09,29,24.30
2021,08,13,09,30,24.20
2021,08,13,09,31,24.20
2021,08,13,09,32,24.20
2021,08,13,09,33,24.20
2021,08,13,09,34,24.20
2021,08,13,09,35,24.20
2021,08,13,09,36,24.20
2021,08,13,09,37,24.20
2021,08,13,09,38,24.20
2021,08,13,09,39,24.20
2021,08,13,09,40,24.20
2021,08,13,09,41,24.30
2021,08,13,09,42,24.30
2021,08,13,09,43,24.40
2021,08,13,09,44,24.40
2021,08,13,09,45,24.50
2021,08,13,09,46,24.60
2021,08,13,09,47,24.70
2021,08,13,09,48,24.80
2021,08,13,09,49,24.80
2021,08,13,09,50,24.90
2021,08,13,09,51,25.00
2021,08,13,09,52,25.00
2021,08,13,09,53,25.10
2021,08,13,09,54,25.20
2021,08,13,09,55,25.20
2021,08,13,09,56,25.30
2021,08,13,09,57,25.40
2021,08,13,09,58,25.40
2021,08,13,09,59,25.40
2021,08,13,10,00,25.50
2021,08,13,10,01,25.50
2021,08,13,10,02,25.60
2021,08,13,10,03,25.60
2021,08,13,10,04,25.70
2021,08,13,10,05,25.80
2021,08,13,10,06,25.80
2021,08,13,10,07,25.90
2021,08,13,10,08,25.90
2021,08,13,10,09,25.90
2021,08,13,10,10,25.90
2021,08,13,10,11,25.90
2021,08,13,10,12,25.90
2021,08,13,10,13,25.90
2021,08,13,10,14,26.00
2021,08,13,10,15,26.00
2021,08,13,10,16,26.00
2021,08,13,10,17,26.10
2021,08,13,10,18,26.10
2021,08,13,10,19,26.20
2021,08,13,10,20,26.20
2021,08,13,10,21,26.20
2021,08,13,10,22,26.20
2021,08,13,10,23,26.30
2021,08,13,10,24,26.30
2021,08,13,10,25,26.30
2021,08,13,10,26,26.40
2021,08,13,10,27,26.40
2021,08,13,10,28,26.40
2021,08,13,10,29,26.40
2021,08,13,10,30,26.50
2021,08,13,10,31,26.60
2021,08,13,10,32,26.60
2021,08,13,10,33,26.60
2021,08,13,10,34,26.60
2021,08,13,10,35,26.60
2021,08,13,10,36,26.60
2021,08,13,10,37,26.60
2021,08,13,10,38,26.70
2021,08,13,10,39,26.70
2021,08,13,10,40,26.70
2021,08,13,10,41,26.70
2021,08,13,10,42,26.70
2021,08,13,10,43,26.70
2021,08,13,10,44,26.70
2021,08,13,10,45,26.80
2021,08,13,10,46,26.80
2021,08,13,10,47,26.80
2021,08,13,10,48,26.90
2021,08,13,10,49,26.90
2021,08,13,10,50,26.90
2021,08,13,10,51,26.90
2021,08,13,10,52,26.90
2021,08,13,10,53,26.90
2021,08,13,10,54,26.80
2021,08,13,10,55,26.80
2021,08,13,10,56,26.80
2021,08,13,10,57,26.80
2021,08,13,10,58,26.80
2021,08,13,10,59,26.70
2021,08,13,11,00,26.60
2021,08,13,11,01,26.60
2021,08,13,11,02,26.50
2021,08,13,11,03,26.40
2021,08,13,11,04,26.30
2021,08,13,11,05,26.30
2021,08,13,11,06,26.30
2021,08,13,11,07,26.40
2021,08,13,11,08,26.40
2021,08,13,11,09,26.50
2021,08,13,11,10,26.60
2021,08,13,11,11,26.50
2021,08,13,11,12,26.40
2021,08,13,11,13,26.40
2021,08,13,11,14,26.50
2021,08,13,11,15,26.60
2021,08,13,11,16,26.60
2021,08,13,11,17,26.60
2021,08,13,11,18,26.70
2021,08,13,11,19,26.80
2021,08,13,11,20,26.80
2021,08,13,11,21,26.80
2021,08,13,11,22,26.80
2021,08,13,11,23,26.90
2021,08,13,11,24,26.90
2021,08,13,11,25,27.10
2021,08,13,11,26,27.10
2021,08,13,11,27,27.10
2021,08,13,11,28,27.20
2021,08,13,11,29,27.20
2021,08,13,11,30,27.30
2021,08,13,11,31,27.30
2021,08,13,11,32,27.30
2021,08,13,11,33,27.30
2021,08,13,11,34,27.40
2021,08,13,11,35,27.40
2021,08,13,11,36,27.40
2021,08,13,11,37,27.40
2021,08,13,11,38,27.40
2021,08,13,11,39,27.50
2021,08,13,11,40,27.60
2021,08,13,11,41,27.60
2021,08,13,11,42,27.60
2021,08,13,11,43,27.70
2021,08,13,11,44,27.70
2021,08,13,11,45,27.80
2021,08,13,11,46,27.90
2021,08,13,11,47,27.90
2021,08,13,11,48,28.00
2021,08,13,11,49,28.00
2021,08,13,11,50,28.00
2021,08,13,11,51,27.90
2021,08,13,11,52,27.90
2021,08,13,11,53,27.90
2021,08,13,11,54,27.90
2021,08,13,11,55,27.90
2021,08,13,11,56,27.90
2021,08,13,11,57,28.00
2021,08,13,11,58,28.00
2021,08,13,11,59,28.00
2021,08,13,12,00,28.10
2021,08,13,12,01,28.20
2021,08,13,12,02,28.20
2021,08,13,12,03,28.20
2021,08,13,12,04,28.20
2021,08,13,12,05,28.10
2021,08,13,12,06,28.10
2021,08,13,12,07,28.10
2021,08,13,12,08,28.10
2021,08,13,12,09,28.10
2021,08,13,12,10,28.10
2021,08,13,12,11,28.20
2021,08,13,12,12,28.30
2021,08,13,12,13,28.30
2021,08,13,12,14,28.40
2021,08,13,12,15,28.40
2021,08,13,12,16,28.60
2021,08,13,12,17,28.60
2021,08,13,12,18,28.70
2021,08,13,12,19,28.70
2021,08,13,12,20,28.80
2021,08,13,12,21,28.90
2021,08,13,12,22,28.90
2021,08,13,12,23,28.90
2021,08,13,12,24,28.90
2021,08,13,12,25,28.90
2021,08,13,12,26,28.90
2021,08,13,12,27,28.90
2021,08,13,12,28,28.90
2021,08,13,12,29,28.90
2021,08,13,12,30,28.90
2021,08,13,12,31,28.90
2021,08,13,12,32,28.90
2021,08,13,12,33,28.90
2021,08,13,12,34,28.90
2021,08,13,12,35,28.90
2021,08,13,12,36,28.90
2021,08,13,12,37,28.90
2021,08,13,12,38,28.90
2021,08,13,12,39,28.80
2021,08,13,12,40,28.70
2021,08,13,12,41,28.60
2021,08,13,12,42,28.50
2021,08,13,12,43,28.40
2021,08,13,12,44,28.50
2021,08,13,12,45,28.60
2021,08,13,12,46,28.70
2021,08,13,12,47,28.70
2021,08,13,12,48,28.80
2021,08,13,12,49,28.90
2021,08,13,12,50,29.00
2021,08,13,12,51,29.10
2021,08,13,12,52,29.20
2021,08,13,12,53,29.30
2021,08,13,12,54,29.30
2021,08,13,12,55,29.40
2021,08,13,12,56,29.40
2021,08,13,12,57,29.50
2021,08,13,12,58,29.50
2021,08,13,12,59,29.50
2021,08,13,13,00,29.60
2021,08,13,13,01,29.60
2021,08,13,13,02,29.70
2021,08,13,13,03,29.80
2021,08,13,13,04,29.80
2021,08,13,13,05,29.80
2021,08,13,13,06,29.80
2021,08,13,13,07,29.70
2021,08,13,13,08,29.70
2021,08,13,13,09,29.80
2021,08,13,13,10,29.80
2021,08,13,13,11,29.80
2021,08,13,13,12,29.70
2021,08,13,13,13,29.70
2021,08,13,13,14,29.70
2021,08,13,13,15,29.80
2021,08,13,13,16,29.80
2021,08,13,13,17,29.70
2021,08,13,13,18,29.70
2021,08,13,13,19,29.60
2021,08,13,13,20,29.60
2021,08,13,13,21,29.60
2021,08,13,13,22,29.70
2021,08,13,13,23,29.70
2021,08,13,13,24,29.60
2021,08,13,13,25,29.70
2021,08,13,13,26,29.70
2021,08,13,13,27,29.80
2021,08,13,13,28,29.80
2021,08,13,13,29,29.80
2021,08,13,13,30,29.90
2021,08,13,13,31,30.00
2021,08,13,13,32,30.10
2021,08,13,13,33,30.10
2021,08,13,13,34,30.10
2021,08,13,13,35,30.10
2021,08,13,13,36,30.00
2021,08,13,13,37,30.10
2021,08,13,13,38,30.10
2021,08,13,13,39,30.10
2021,08,13,13,40,30.20
2021,08,13,13,41,30.10
2021,08,13,13,42,30.10
2021,08,13,13,43,30.10
2021,08,13,13,44,30.10
2021,08,13,13,45,30.20
2021,08,13,13,46,30.30
2021,08,13,13,47,30.30
2021,08,13,13,48,30.30
2021,08,13,13,49,30.40
2021,08,13,13,50,30.60
2021,08,13,13,51,30.60
2021,08,13,13,52,30.40
2021,08,13,13,53,30.20
2021,08,13,13,54,30.00
2021,08,13,13,55,29.80
2021,08,13,13,56,29.70
2021,08,13,13,57,29.60
2021,08,13,13,58,29.60
2021,08,13,13,59,29.60
2021,08,13,14,00,29.60
2021,08,13,14,01,29.60
2021,08,13,14,02,29.50
2021,08,13,14,03,29.60
2021,08,13,14,04,29.60
2021,08,13,14,05,29.60
2021,08,13,14,06,29.60
2021,08,13,14,07,29.60
2021,08,13,14,08,29.60
2021,08,13,14,09,29.50
2021,08,13,14,10,29.50
2021,08,13,14,11,29.40
2021,08,13,14,12,29.40
2021,08,13,14,13,29.30
2021,08,13,14,14,29.30
2021,08,13,14,15,29.40
2021,08,13,14,16,29.60
2021,08,13,14,17,29.60
2021,08,13,14,18,29.60
2021,08,13,14,19,29.60
2021,08,13,14,20,29.50
2021,08,13,14,21,29.50
2021,08,13,14,22,29.30
2021,08,13,14,23,29.30
2021,08,13,14,24,29.30
2021,08,13,14,25,29.30
2021,08,13,14,26,29.30
2021,08,13,14,27,29.40
2021,08,13,14,28,29.40
2021,08,13,14,29,29.30
2021,08,13,14,30,29.30
2021,08,13,14,31,29.30
2021,08,13,14,32,29.30
2021,08,13,14,33,29.30
2021,08,13,14,34,29.40
2021,08,13,14,35,29.40
2021,08,13,14,36,29.40
2021,08,13,14,37,29.20
2021,08,13,14,38,29.20
2021,08,13,14,39,29.10
2021,08,13,14,40,29.00
2021,08,13,14,41,28.90
2021,08,13,14,42,28.90
2021,08,13,14,43,28.90
2021,08,13,14,44,28.90
2021,08,13,14,45,28.90
2021,08,13,14,46,28.90
2021,08,13,14,47,28.90
2021,08,13,14,48,28.90
2021,08,13,14,49,29.10
2021,08,13,14,50,29.10
2021,08,13,14,51,29.10
2021,08,13,14,52,29.20
2021,08,13,14,53,29.30
2021,08,13,14,54,29.40
2021,08,13,14,55,29.50
2021,08,13,14,56,29.60
2021,08,13,14,57,29.60
2021,08,13,14,58,29.60
2021,08,13,14,59,29.80
2021,08,13,15,00,29.90
2021,08,13,15,01,30.10
2021,08,13,15,02,30.20
2021,08,13,15,03,30.40
2021,08,13,15,04,30.60
2021,08,13,15,05,30.70
2021,08,13,15,06,30.70
2021,08,13,15,07,30.80
2021,08,13,15,08,30.90
2021,08,13,15,09,31.00
2021,08,13,15,10,31.10
2021,08,13,15,11,31.20
2021,08,13,15,12,31.30
2021,08,13,15,13,31.40
2021,08,13,15,14,31.60
2021,08,13,15,15,31.60
2021,08,13,15,16,31.70
2021,08,13,15,17,31.70
2021,08,13,15,18,31.80
2021,08,13,15,19,31.90
2021,08,13,15,20,31.90
2021,08,13,15,21,32.00
2021,08,13,15,22,32.10
2021,08,13,15,23,32.10
2021,08,13,15,24,32.20
2021,08,13,15,25,32.20
2021,08,13,15,26,32.20
2021,08,13,15,27,32.30
2021,08,13,15,28,32.30
2021,08,13,15,29,32.40
2021,08,13,15,30,32.30
2021,08,13,15,31,32.30
2021,08,13,15,32,32.20
2021,08,13,15,33,32.10
2021,08,13,15,34,32.00
2021,08,13,15,35,31.80
2021,08,13,15,36,31.70
2021,08,13,15,37,31.70
2021,08,13,15,38,31.60
2021,08,13,15,39,31.60
2021,08,13,15,40,31.60
2021,08,13,15,41,31.60
2021,08,13,15,42,31.60
2021,08,13,15,43,31.60
2021,08,13,15,44,31.70
2021,08,13,15,45,31.70
2021,08,13,15,46,31.70
2021,08,13,15,47,31.70
2021,08,13,15,48,31.80
2021,08,13,15,49,31.80
2021,08,13,15,50,31.70
2021,08,13,15,51,31.70
2021,08,13,15,52,31.70
2021,08,13,15,53,31.70
2021,08,13,15,54,31.70
2021,08,13,15,55,31.80
2021,08,13,15,56,31.90
2021,08,13,15,57,32.00
2021,08,13,15,58,32.10
2021,08,13,15,59,32.10
2021,08,13,16,00,32.10
2021,08,13,16,01,32.20
2021,08,13,16,02,32.20
2021,08,13,16,03,32.20
2021,08,13,16,04,32.20
2021,08,13,16,05,32.20
2021,08,13,16,06,32.10
2021,08,13,16,07,32.10
2021,08,13,16,08,32.10
2021,08,13,16,09,32.10
2021,08,13,16,10,32.10
2021,08,13,16,11,32.00
2021,08,13,16,12,31.80
2021,08,13,16,13,31.60
2021,08,13,16,14,31.50
2021,08,13,16,15,31.40
2021,08,13,16,16,31.40
2021,08,13,16,17,31.30
2021,08,13,16,18,31.00
2021,08,13,16,19,30.70
2021,08,13,16,20,30.60
2021,08,13,16,21,30.50
2021,08,13,16,22,30.30
2021,08,13,16,23,30.20
2021,08,13,16,24,30.20
2021,08,13,16,25,30.10
2021,08,13,16,26,30.10
2021,08,13,16,27,30.20
2021,08,13,16,28,30.20
2021,08,13,16,29,30.30
2021,08,13,16,30,30.30
2021,08,13,16,31,30.30
2021,08,13,16,32,30.30
2021,08,13,16,33,30.20
2021,08,13,16,34,30.10
2021,08,13,16,35,30.10
2021,08,13,16,36,30.10
2021,08,13,16,37,30.10
2021,08,13,16,38,30.20
2021,08,13,16,39,30.20
2021,08,13,16,40,30.30
2021,08,13,16,41,30.20
2021,08,13,16,42,30.20
2021,08,13,16,43,30.10
2021,08,13,16,44,30.10
2021,08,13,16,45,30.10
2021,08,13,16,46,30.20
2021,08,13,16,47,30.10
2021,08,13,16,48,30.10
2021,08,13,16,49,30.20
2021,08,13,16,50,30.20
2021,08,13,16,51,30.20
2021,08,13,16,52,30.20
2021,08,13,16,53,30.20
2021,08,13,16,54,30.30
2021,08,13,16,55,30.30
2021,08,13,16,56,30.40
2021,08,13,16,57,30.40
2021,08,13,16,58,30.40
2021,08,13,16,59,30.50
2021,08,13,17,00,30.60
2021,08,13,17,01,30.60
2021,08,13,17,02,30.50
2021,08,13,17,03,30.40
2021,08,13,17,04,30.40
2021,08,13,17,05,30.40
2021,08,13,17,06,30.50
2021,08,13,17,07,30.60
2021,08,13,17,08,30.40
2021,08,13,17,09,30.40
2021,08,13,17,10,30.30
2021,08,13,17,11,30.30
2021,08,13,17,12,30.30
2021,08,13,17,13,30.20
2021,08,13,17,14,30.20
2021,08,13,17,15,30.20
2021,08,13,17,16,30.30
2021,08,13,17,17,30.30
2021,08,13,17,18,30.30
2021,08,13,17,19,30.30